[[{"header":{"parameterUnit":"m.s-1","parameterCategory":1,"la1":30.2991,"la2":30.254,"lo1":-89.0895,"lo2":-89.0444,"dy":0.0017,"dx":0.0017,"nx":28,"ny":28,"refTime":"2023-11-22T09:00:00:Z","depth":0,"parameterNumber":2,"parameterNumberName":"U-component_of_WINDS"},"data":[0,0,0,0,0,0,0,0,0,0,0,0,0,0,0,0,0,0,0,0,0,0,0,0,0,0,0,0,0,0,0,0,0,0,0,0,0,0,0,0,0,0,0,0,0,0,0,0,0,0,0,0,0,0,0,0,0,0,0.5393,0.5392,0,0.5308,0.5307,0.5306,0.5289,0.529,0.5291,0.5291,0.5201,0.5198,0.5195,0,0,0,0,0,0,0,0,0,0,0,0,0,0.5537,0.5535,0.5393,0.5392,0.5391,0.5308,0.5307,0.5306,0.5289,0.529,0.5291,0.5291,0.5202,0.5198,0.5195,0,0,0,0,0,0,0,0,0,0,0,0,0,0.5466,0.5534,0.5393,0.5373,0.537,0.5309,0.5307,0.5306,0.5289,0.529,0.5291,0.5292,0.5203,0.5199,0.5194,0.5146,0,0,0.518,0.5178,0,0,0,0,0,0,0,0,0.547,0.5461,0.5377,0.5374,0.5371,0.531,0.5325,0.5252,0.5289,0.532,0.5291,0.5292,0.5236,0.5229,0.5211,0.5142,0.5138,0.518,0.5177,0.5175,0.5174,0,0,0,0,0,0,0,0.5475,0.5464,0.5359,0.5376,0.5372,0.5367,0.5358,0.5311,0.5273,0.5317,0.5316,0.5306,0.5235,0.5215,0.5208,0.5137,0.518,0.5176,0.5173,0.5171,0.5023,0.5022,0,0,0,0,0,0,0.5484,0.5468,0.5362,0.5357,0.5424,0.5363,0.5353,0.5329,0.5274,0.5266,0.5305,0.5305,0.5222,0.5214,0.5205,0.5144,0.5175,0.5171,0.5168,0.5024,0.5023,0.5021,0,0,0,0,0,0,0.5487,0.5475,0.5365,0.5412,0.5398,0.536,0.5332,0.5327,0.5307,0.5265,0.5258,0.5292,0.5223,0.5212,0.5161,0.5141,0.5169,0.5165,0.5025,0.5024,0.5022,0.5023,0,0,0,0,0,0,0.5491,0.5476,0.5458,0.5412,0.5395,0.5323,0.5331,0.5324,0.53,0.5299,0.5251,0.5244,0.5223,0.5168,0.5156,0.5135,0.5161,0.5027,0.5025,0.5022,0.5024,0.5021,0.5018,0,0,0,0,0,0.5497,0.5461,0.5457,0.5444,0.5372,0.5322,0.5313,0.529,0.5298,0.5279,0.5252,0.5245,0.5146,0.5163,0.515,0.5127,0.5028,0.5025,0.5023,0.5025,0.5022,0.5018,0,0,0,0,0,0,0.5504,0.5455,0.545,0.5398,0.5365,0.532,0.5295,0.5287,0.525,0.5251,0.5224,0.5213,0.5163,0.514,0.516,0.5077,0.5087,0.5082,0.5094,0.509,0.5087,0.5092,0.5157,0,0,0,0,0,0.5501,0.5465,0.5423,0.5382,0.5365,0.5333,0.5311,0.5296,0.526,0.5245,0.5215,0.5179,0.5139,0.5113,0.5075,0.5022,0.501,0.4999,0.4996,0.4994,0.4989,0.4958,0.4952,0.5012,0.5012,0.5012,0,0,0.5491,0.546,0.5439,0.5383,0.5355,0.5317,0.5321,0.5282,0.5253,0.5239,0.5189,0.5165,0.5123,0.5071,0.5046,0.505,0.497,0.4991,0.4989,0.4985,0.4955,0.4949,0.4944,0.501,0.5011,0.5011,0,0,0.5455,0.5429,0.5391,0.5363,0.5322,0.5301,0.5292,0.5248,0.5231,0.5181,0.517,0.5135,0.5068,0.5038,0.5014,0.4968,0.4959,0.4956,0.494,0.491,0.4905,0.4901,0.4882,0.4876,0.4951,0.4951,0.4951,0,0.5448,0.5393,0.5372,0.5333,0.5308,0.5295,0.5255,0.5229,0.5177,0.5159,0.5165,0.508,0.5051,0.4991,0.498,0.4961,0.4949,0.496,0.4908,0.4903,0.4899,0.4881,0.4874,0.4951,0.4951,0.4951,0.4951,0,0.5386,0.5347,0.5322,0.5272,0.5245,0.5206,0.5178,0.5152,0.5141,0.5119,0.5068,0.5033,0.4986,0.4971,0.4959,0.4909,0.4913,0.4914,0.4923,0.4893,0.4876,0.4869,0.4951,0.4951,0.4951,0.4951,0,0,0.5351,0.5291,0.5282,0.5259,0.5212,0.5182,0.5142,0.5098,0.5075,0.504,0.5005,0.4949,0.4949,0.4922,0.4907,0.4881,0.4844,0.4885,0.4883,0.4877,0.4785,0.4783,0.4776,0.484,0.4839,0.4837,0.4788,0,0.5307,0.5237,0.5217,0.5157,0.512,0.5107,0.5073,0.504,0.5018,0.4984,0.496,0.492,0.4924,0.4908,0.4882,0.4855,0.4825,0.4858,0.4805,0.4803,0.4814,0.4767,0.4765,0.472,0.4781,0.478,0.4779,0,0.5247,0.5211,0.5148,0.5106,0.509,0.5059,0.5016,0.4984,0.4946,0.4932,0.4902,0.489,0.4846,0.486,0.4799,0.4822,0.4799,0.4783,0.4781,0.4773,0.4788,0.4756,0.4706,0.4698,0.4769,0.477,0.4771,0,0.5226,0.5162,0.5115,0.5096,0.5046,0.5025,0.5003,0.4966,0.4941,0.4904,0.4886,0.4845,0.4821,0.4789,0.4765,0.4777,0.4705,0.4717,0.4691,0.4692,0.4675,0.4676,0.4618,0.4664,0.4664,0.4664,0.4664,0,0.5178,0.5139,0.5105,0.5076,0.5031,0.5009,0.4965,0.4943,0.4911,0.4876,0.4863,0.4831,0.4802,0.4766,0.4747,0.4699,0.4689,0.4675,0.467,0.4675,0.4676,0.4658,0.466,0.4662,0.4663,0.4663,0.4663,0,0.5146,0.5121,0.5069,0.5027,0.5015,0.4984,0.4947,0.4918,0.4897,0.4854,0.4842,0.4809,0.4765,0.4739,0.4683,0.4671,0.4617,0.4614,0.463,0.4627,0.4602,0.4604,0.4528,0.4516,0.4573,0.4572,0.4572,0,0.5116,0.5086,0.504,0.5017,0.4995,0.4957,0.4932,0.4909,0.4882,0.4837,0.4813,0.4769,0.4732,0.4664,0.4633,0.4591,0.4586,0.4562,0.4579,0.4585,0.4583,0.4584,0.458,0.4559,0.4558,0.4558,0.4557,0,0.5065,0.5055,0.5019,0.4978,0.4948,0.4914,0.4881,0.4863,0.4834,0.4804,0.476,0.4732,0.4676,0.4632,0.4587,0.4564,0.4555,0.4553,0.4544,0.4548,0.4557,0.455,0.462,0.4554,0.4554,0.4555,0.4555,0.4555,0.5032,0.5004,0.4968,0.4927,0.49,0.487,0.484,0.4816,0.4779,0.4732,0.4721,0.4674,0.4637,0.4576,0.4551,0.4514,0.4517,0.4505,0.4502,0.4499,0.4497,0.4565,0.4506,0.4506,0.4506,0.4506,0.4506,0,0.4979,0.4955,0.4918,0.4873,0.4841,0.4838,0.4801,0.4774,0.4733,0.47,0.4665,0.4614,0.4571,0.4538,0.4494,0.447,0.4465,0.4459,0.446,0.4454,0.4498,0.4509,0.4464,0.4464,0.4464,0.4464,0.4464,0.4464,0.4947,0.4899,0.4885,0.4823,0.48,0.4754,0.4733,0.4705,0.4678,0.4622,0.4587,0.4566,0.4532,0.4486,0.4447,0.4438,0.4421,0.4416,0.4406,0.4447,0.4451,0.4456,0.4466,0.4413,0.4413,0.4366,0.4365,0.4365]},{"header":{"parameterUnit":"m.s-1","parameterCategory":1,"la1":30.2991,"la2":30.254,"lo1":-89.0895,"lo2":-89.0444,"dy":0.0017,"dx":0.0017,"nx":28,"ny":28,"refTime":"2023-11-22T09:00:00:Z","depth":0,"parameterNumber":3,"parameterNumberName":"V-component_of_WINDS"},"data":[0,0,0,0,0,0,0,0,0,0,0,0,0,0,0,0,0,0,0,0,0,0,0,0,0,0,0,0,0,0,0,0,0,0,0,0,0,0,0,0,0,0,0,0,0,0,0,0,0,0,0,0,0,0,0,0,0,0,-5.0793,-5.0795,0,-5.0971,-5.0973,-5.0975,-5.0907,-5.0903,-5.0899,-5.0895,-5.1073,-5.1081,-5.1089,0,0,0,0,0,0,0,0,0,0,0,0,0,-5.0389,-5.0396,-5.0793,-5.0795,-5.0797,-5.0971,-5.0973,-5.0976,-5.0908,-5.0903,-5.0898,-5.0893,-5.107,-5.108,-5.109,0,0,0,0,0,0,0,0,0,0,0,0,0,-5.0565,-5.0399,-5.0792,-5.0784,-5.0785,-5.097,-5.0973,-5.0976,-5.0909,-5.0903,-5.0897,-5.0891,-5.1066,-5.1079,-5.1091,-5.1293,0,0,-5.1131,-5.1136,0,0,0,0,0,0,0,0,-5.0555,-5.058,-5.0783,-5.0785,-5.0787,-5.0911,-5.0896,-5.1082,-5.091,-5.0862,-5.0895,-5.0888,-5.1023,-5.1039,-5.1086,-5.1302,-5.1309,-5.1132,-5.114,-5.1145,-5.1149,0,0,0,0,0,0,0,-5.0543,-5.0572,-5.0863,-5.0786,-5.0788,-5.077,-5.0789,-5.0931,-5.0975,-5.0866,-5.0861,-5.0883,-5.1023,-5.1074,-5.109,-5.1312,-5.1131,-5.1143,-5.1151,-5.1156,-5.1703,-5.171,0,0,0,0,0,0,-5.0531,-5.0562,-5.0857,-5.0868,-5.0654,-5.0783,-5.0803,-5.0877,-5.0973,-5.0982,-5.0888,-5.088,-5.1055,-5.1075,-5.1096,-5.134,-5.1145,-5.1157,-5.1164,-5.1696,-5.1705,-5.1712,0,0,0,0,0,0,-5.0523,-5.0558,-5.085,-5.0714,-5.075,-5.0796,-5.088,-5.0884,-5.0935,-5.099,-5.0997,-5.0933,-5.1051,-5.1078,-5.1245,-5.1345,-5.1163,-5.1174,-5.1688,-5.1699,-5.1708,-5.1829,0,0,0,0,0,0,-5.0511,-5.0555,-5.0634,-5.0717,-5.0758,-5.0999,-5.0886,-5.0892,-5.0958,-5.0948,-5.1034,-5.1042,-5.1048,-5.1227,-5.1258,-5.1359,-5.1184,-5.1679,-5.1693,-5.1705,-5.1816,-5.1842,-5.1864,0,0,0,0,0,-5.0497,-5.0659,-5.0638,-5.0674,-5.0857,-5.1005,-5.1028,-5.1033,-5.0966,-5.1044,-5.108,-5.1039,-5.1329,-5.1244,-5.1279,-5.1386,-5.1673,-5.1689,-5.1704,-5.1806,-5.1837,-5.1864,0,0,0,0,0,0,-5.0584,-5.067,-5.0647,-5.0841,-5.0917,-5.0993,-5.1092,-5.1066,-5.1161,-5.1147,-5.1148,-5.1168,-5.1342,-5.138,-5.1284,-5.1587,-5.1491,-5.1514,-5.1556,-5.1586,-5.161,-5.1597,-5.1195,0,0,0,0,0,-5.0626,-5.0741,-5.0808,-5.0973,-5.1012,-5.1046,-5.111,-5.1108,-5.1186,-5.1217,-5.1264,-5.134,-5.1447,-5.1518,-5.1621,-5.1821,-5.1839,-5.1911,-5.1935,-5.1954,-5.1975,-5.2085,-5.2118,-5.1763,-5.1763,-5.1762,0,0,-5.0714,-5.0775,-5.0847,-5.0992,-5.105,-5.1168,-5.1073,-5.1201,-5.1288,-5.1235,-5.1398,-5.1436,-5.1519,-5.1705,-5.1789,-5.1742,-5.2077,-5.1974,-5.1989,-5.1999,-5.2104,-5.2138,-5.2168,-5.1773,-5.1771,-5.177,0,0,-5.0934,-5.0992,-5.1136,-5.1197,-5.1287,-5.1308,-5.1343,-5.1424,-5.1448,-5.1611,-5.1574,-5.1677,-5.1862,-5.1924,-5.198,-5.2225,-5.2191,-5.2257,-5.2383,-5.249,-5.2518,-5.2543,-5.2632,-5.2663,-5.2277,-5.2278,-5.2278,0,-5.1032,-5.1209,-5.1213,-5.1346,-5.1411,-5.137,-5.1516,-5.1573,-5.1691,-5.1737,-5.1683,-5.1917,-5.197,-5.217,-5.223,-5.2276,-5.2315,-5.2248,-5.2514,-5.2539,-5.2562,-5.2647,-5.268,-5.2285,-5.2284,-5.2284,-5.2283,0,-5.1325,-5.1449,-5.1554,-5.1672,-5.1749,-5.1887,-5.1911,-5.1987,-5.1978,-5.2005,-5.2172,-5.2235,-5.235,-5.2397,-5.2388,-5.2596,-5.2565,-5.2513,-5.2416,-5.2604,-5.2684,-5.2716,-5.2296,-5.2293,-5.2291,-5.2289,0,0,-5.1606,-5.1725,-5.1764,-5.1818,-5.1914,-5.2009,-5.2145,-5.226,-5.2326,-5.2408,-5.2523,-5.2681,-5.2634,-5.2698,-5.2695,-5.2789,-5.2981,-5.2726,-5.2728,-5.2773,-5.3215,-5.3255,-5.3293,-5.2959,-5.2965,-5.297,-5.3209,0,-5.1835,-5.2077,-5.2085,-5.2305,-5.2419,-5.2382,-5.2501,-5.2572,-5.2601,-5.2701,-5.2731,-5.2845,-5.2773,-5.2812,-5.2903,-5.2939,-5.307,-5.2921,-5.3065,-5.307,-5.3047,-5.3334,-5.3377,-5.36,-5.324,-5.3245,-5.3249,0,-5.2136,-5.2231,-5.2463,-5.2545,-5.2593,-5.27,-5.2806,-5.2902,-5.2982,-5.2996,-5.3068,-5.3052,-5.319,-5.3089,-5.3279,-5.3177,-5.3236,-5.3262,-5.3271,-5.3286,-5.3172,-5.3358,-5.3671,-5.3705,-5.3298,-5.3294,-5.329,0,-5.232,-5.2505,-5.2669,-5.2715,-5.2814,-5.289,-5.2934,-5.3008,-5.3077,-5.3169,-5.3214,-5.3319,-5.3378,-5.3459,-5.3472,-5.3397,-5.3664,-5.3563,-5.3679,-5.3679,-5.3738,-5.3735,-5.4066,-5.3774,-5.3773,-5.3772,-5.3772,0,-5.2576,-5.272,-5.2753,-5.2854,-5.3014,-5.3021,-5.3178,-5.3216,-5.3283,-5.3389,-5.3362,-5.3462,-5.3473,-5.3576,-5.3586,-5.3743,-5.3768,-5.3784,-5.3785,-5.3788,-5.3786,-5.3827,-5.3813,-5.3781,-5.3779,-5.3778,-5.3776,0,-5.2809,-5.2837,-5.3013,-5.3093,-5.3116,-5.3231,-5.3298,-5.3394,-5.342,-5.3556,-5.3588,-5.3628,-5.3748,-5.3769,-5.3909,-5.3916,-5.4104,-5.4088,-5.4078,-5.4077,-5.4193,-5.4182,-5.4564,-5.4615,-5.4287,-5.429,-5.4293,0,-5.2972,-5.3083,-5.3175,-5.3246,-5.3295,-5.3408,-5.3479,-5.3489,-5.3564,-5.3664,-5.3748,-5.3865,-5.396,-5.4153,-5.4194,-5.4302,-5.4289,-5.4416,-5.4305,-5.4305,-5.4293,-5.4288,-5.4299,-5.4437,-5.4441,-5.4444,-5.4446,0,-5.3259,-5.3268,-5.3372,-5.3482,-5.3568,-5.3654,-5.3735,-5.3794,-5.3815,-5.3899,-5.4023,-5.4097,-5.4242,-5.4359,-5.4466,-5.4509,-5.4482,-5.448,-5.4513,-5.4518,-5.4508,-5.4517,-5.4138,-5.4472,-5.4469,-5.4467,-5.4466,-5.4465,-5.3463,-5.356,-5.3641,-5.3758,-5.3821,-5.3899,-5.3993,-5.4032,-5.4136,-5.4257,-5.4255,-5.4391,-5.4468,-5.4609,-5.466,-5.4766,-5.4725,-5.4772,-5.4784,-5.4797,-5.4809,-5.449,-5.4785,-5.4784,-5.4783,-5.4783,-5.4782,0,-5.375,-5.3801,-5.3908,-5.4025,-5.4117,-5.4084,-5.4173,-5.4252,-5.4373,-5.4448,-5.4542,-5.4685,-5.4799,-5.4849,-5.496,-5.5035,-5.5026,-5.5064,-5.506,-5.5071,-5.4838,-5.4799,-5.5071,-5.5071,-5.5071,-5.5071,-5.507,-5.507,-5.391,-5.4074,-5.4092,-5.4286,-5.4335,-5.447,-5.4524,-5.4594,-5.4655,-5.4816,-5.4911,-5.4944,-5.5009,-5.5125,-5.5228,-5.5239,-5.5282,-5.5328,-5.5334,-5.5116,-5.5087,-5.5059,-5.5023,-5.5337,-5.5337,-5.5558,-5.556,-5.5562]}]]